Location: Chircca
(13.7944°S, 72.0608°W)
Time: 05:49:23
(UTC+00:00)

Cosmos 2266 Rocket - Pass Details

Date: 14 July 2020
Orbit: 935 x 1007 km, 82.9° (Epoch: 14 August)

Event Time Altitude Azimuth Distance (km) Brightness Sun altitude
Rises 10:40:00 0° 359° (N) 3,710 7.3 -8.3°
Reaches altitude 10° 10:42:31 10° 359° (N) 2,761 6.6 -7.7°
Maximum altitude 10:48:52 84° 86° (E) 1,003 4.2 -6.2°
Drops below altitude 10° 10:55:11 10° 174° (S) 2,743 6.2 -4.8°
Sets 10:57:41 0° 175° (S) 3,685 6.9 -4.2°
